SCP
1 1 1 0 0 0 0 0 0 0 1 1 0 0 0 1 1 0 0 0 0 0 0 1 1 1 0 0 0 1 0 0 0 0 0 0 0 0 0 0 0 0 0
1 2 1 1 2 1 1 1 1 1 1 0 0 1 1 1 1 1 1 1 1 0 1 1 1 1 1 1 1 1 0 0 0 0 0 0 0 0 0 0 0 0 0
4 3 2 3 2 2 1 2 2 2 1 1 1 1 1 1 1 1 1 1 1 1 1 1 1 1 1 1 1 1 1 0 0 0 0 0 0 0 0 0 0 0 0
3 5 4 3 2 1 2 2 1 1 1 1 0 1 1 2 2 2 1 1 1 1 1 1 1 1 1 1 1 1 1 0 0 0 0 0 0 0 0 0 0 0 0
4 6 3 3 3 2 2 3 2 1 1 1 1 2 3 3 3 2 1 1 1 2 2 1 2 1 1 1 2 2 1 1 0 0 0 0 0 0 0 0 0 0 0
7 6 6 3 6 4 4 4 3 2 2 2 1 1 4 4 2 2 2 2 1 2 3 2 2 1 1 1 1 2 2 1 1 0 0 0 0 0 0 0 0 0 0
6 6 4 6 5 6 5 5 4 5 3 3 5 3 6 5 5 3 3 2 2 2 2 3 5 3 2 1 1 1 1 0 0 1 0 0 0 0 0 0 0 0 0
7 7 5 4 6 7 6 6 7 5 5 6 5 4 3 3 3 3 3 2 4 5 4 4 4 4 2 1 1 1 1 1 1 0 0 0 0 0 1 0 0 0 0
7 6 5 6 6 7 6 7 12 8 6 7 6 6 3 2 2 4 4 3 2 1 0 0 0 0 0 0 0 0 1 1 0 0 0 0 0 0 1 1 0 0 0
5 6 6 5 6 7 7 8 7 11 9 8 9 6 5 4 2 1 2 3 1 1 0 0 0 0 0 0 0 0 0 0 0 0 1 1 1 0 1 1 0 0 0
8 5 6 6 7 6 7 7 12 11 9 5 7 5 5 4 3 2 0 2 1 0 0 0 0 0 0 0 0 0 -0 0 0 1 1 1 1 1 1 1 0 0 0
8 6 5 6 7 7 5 10 12 11 8 7 5 3 4 5 3 2 1 1 0 0 0 0 0 0 0 0 0 0 0 -0 0 0 0 1 0 1 1 1 1 0 0
6 6 8 9 13 8 7 5 6 11 8 7 7 5 4 4 3 1 1 1 1 0 0 0 0 0 0 0 0 0 0 0 0 0 0 0 0 0 0 1 1 0 0
2 3 3 2 0 0 0 -0 4 9 9 9 6 4 3 4 4 3 2 2 1 1 1 1 0 0 0 0 0 1 1 1 0 0 0 0 0 0 0 0 0 0 0
3 2 2 3 0 0 0 0 1 3 8 8 6 4 5 5 4 3 4 3 2 1 1 1 0 0 0 0 1 1 1 1 0 0 0 0 0 0 0 0 0 0 0
3 3 3 1 0 0 0 3 2 0 7 6 7 7 5 4 3 4 4 5 3 2 1 1 1 0 0 1 1 1 1 0 0 0 0 0 0 0 0 0 0 0 0
4 3 2 2 2 1 0 0 0 0 1 3 5 5 4 4 3 3 4 4 2 2 0 1 1 1 1 0 0 1 1 1 1 0 0 0 0 0 0 0 0 0 0
1 1 4 3 2 0 0 0 0 0 2 2 3 3 3 3 3 3 3 2 0 1 1 0 0 0 0 0 0 1 1 1 1 1 0 0 0 0 -0 0 0 0 0
0 0 1 2 2 1 0 -0 0 1 2 3 3 3 3 2 3 3 3 2 1 1 0 0 0 0 -0 0 0 0 1 0 1 0 0 0 0 0 0 0 0 0 0
0 0 0 0 1 1 1 1 2 3 2 2 2 3 3 1 2 2 2 1 1 0 0 0 0 0 0 0 0 0 0 0 0 0 0 0 0 0 0 0 0 0 0
0 0 0 0 0 1 0 1 1 1 2 2 3 2 2 1 1 1 1 1 1 0 0 0 0 0 0 0 -0 -0 -0 0 0 0 0 0 0 0 0 0 0 0 0
0 0 0 1 0 0 0 0 1 1 1 2 2 1 1 0 0 0 0 0 0 0 0 0 0 0 0 0 0 0 0 -0 -0 0 0 0 0 0 0 0 0 0 0
0 0 0 0 0 0 0 0 0 1 1 1 1 2 1 1 0 0 0 0 0 0 0 0 0 0 0 0 0 0 0 0 0 0 0 -0 0 0 0 0 0 0 0
0 0 0 0 0 0 0 0 0 0 1 1 1 1 1 1 0 0 0 0 0 0 0 0 0 0 0 0 0 0 0 0 -0 0 0 -0 -0 0 0 0 0 0 0
0 0 0 0 0 0 0 0 0 0 0 0 0 1 1 1 0 0 1 1 1 0 0 0 0 0 0 0 0 -0 -0 -0 -0 0 0 0 0 0 0 0 0 0 0
0 0 0 0 0 0 0 0 0 1 0 0 -0 1 1 1 1 0 0 1 1 0 0 0 0 0 0 -0 -0 0 0 -0 -0 0 0 0 0 0 0 0 0 0 0
Wind_Speed_500mb
43 45 35 28 28 17 17 15 21 30 28 16 13 13 16 22 30 31 26 31 29 32 30 32 28 28 26 24 20 20 22 23 23 25 23 20 19 21 23 24 24 26 26
51 47 45 41 38 28 23 27 23 27 26 17 19 31 33 27 27 26 32 32 37 37 31 30 31 29 29 26 24 20 22 24 28 24 25 24 22 24 23 25 24 26 28
59 59 54 58 59 53 50 42 39 43 39 36 35 31 33 32 26 28 32 35 37 37 34 30 36 34 30 28 27 23 20 23 28 28 24 24 22 24 25 26 24 25 28
61 67 65 61 57 52 47 45 45 43 42 40 32 27 28 32 35 32 33 35 33 38 37 37 36 36 31 30 28 26 21 23 23 26 25 25 24 25 26 28 28 26 26
71 73 75 71 59 58 63 57 53 48 42 38 38 41 46 42 39 35 31 28 30 41 47 47 43 42 41 35 30 28 24 24 27 26 27 25 25 26 28 31 33 32 30
78 72 74 71 61 64 67 64 50 51 51 45 46 46 47 43 34 37 39 33 34 39 47 47 52 50 45 29 29 29 25 23 28 29 31 29 28 26 29 35 36 37 37
81 82 73 85 72 69 76 72 53 57 55 45 41 39 36 44 50 46 37 31 32 36 43 36 44 47 39 40 33 28 26 24 23 30 39 32 33 29 29 34 38 38 39
81 86 79 88 71 79 79 77 58 67 63 54 56 50 50 42 45 42 31 25 23 26 33 27 34 26 32 39 35 24 23 26 17 30 38 42 39 34 32 33 38 39 41
80 88 82 84 87 80 86 83 78 64 70 60 53 47 23 40 41 32 41 38 40 41 39 43 50 54 55 35 52 36 25 29 27 33 32 37 42 38 38 38 38 39 40
74 81 87 88 100 93 81 77 72 76 79 61 45 53 57 48 32 30 44 49 54 63 61 59 72 70 67 88 99 36 38 44 45 33 33 36 40 39 41 48 40 41 40
81 82 86 91 96 91 85 85 78 75 72 60 54 48 48 53 54 56 40 52 56 50 51 55 78 61 75 76 60 32 43 57 44 52 53 48 45 50 53 51 42 43 41
71 95 95 95 94 90 92 81 84 82 79 68 70 65 48 58 58 49 45 51 57 59 50 40 55 50 65 53 67 66 74 50 57 58 59 59 58 54 54 48 49 46 44
68 80 100 105 107 83 81 91 87 84 85 75 66 56 45 49 43 36 36 40 40 52 44 45 55 51 44 39 43 52 53 60 61 58 65 69 64 62 64 60 53 46 47
96 88 86 84 74 75 74 90 98 96 91 72 62 47 56 53 43 49 50 37 37 42 43 54 47 49 48 53 50 57 64 68 69 58 60 70 77 67 62 60 55 46 46
73 90 96 84 80 90 113 129 120 98 82 68 56 45 42 42 47 39 47 43 43 40 49 53 51 45 41 47 44 46 52 52 49 51 55 63 70 72 66 62 55 50 47
76 84 85 80 79 82 87 101 94 66 62 50 49 45 40 37 38 40 45 47 49 54 55 52 46 43 44 38 42 49 52 53 54 57 54 50 56 60 64 57 59 52 48
62 75 84 80 78 60 75 82 77 81 50 54 41 37 32 34 37 43 40 39 48 57 47 48 45 36 40 39 49 54 55 57 57 56 57 48 44 47 47 56 56 51 50
51 59 64 66 65 67 79 91 64 61 30 32 32 30 34 26 34 38 48 47 43 47 37 42 45 41 40 37 41 43 48 55 50 53 50 49 37 41 46 47 48 49 53
58 46 44 49 52 51 19 24 58 64 46 43 32 32 35 40 36 23 25 29 25 28 32 38 44 47 51 42 40 41 46 53 54 56 52 55 43 37 47 52 54 55 53
61 65 51 60 45 39 39 46 54 49 43 39 37 46 36 40 42 39 36 34 39 40 37 36 37 38 39 41 42 28 33 39 45 43 46 43 49 43 44 54 54 56 56
56 66 38 44 43 47 46 40 40 40 47 44 43 40 41 32 31 31 25 25 25 26 29 32 35 41 42 41 47 54 55 41 42 43 44 50 53 52 44 47 52 58 58
57 66 53 25 49 34 19 35 37 32 35 37 40 42 36 36 41 29 30 33 28 29 31 34 34 36 39 42 47 49 54 60 64 55 49 46 43 49 44 45 45 47 48
67 74 81 69 43 60 51 41 43 48 45 46 51 47 48 37 37 37 39 35 33 32 30 26 33 35 40 46 46 45 50 52 52 46 53 62 50 50 43 38 31 23 21
64 68 80 64 57 56 52 44 37 34 44 53 52 55 51 50 45 41 40 39 39 37 34 32 35 39 38 44 48 52 58 66 70 65 59 73 62 56 44 41 38 30 26
65 70 69 88 76 72 68 57 45 33 51 65 53 67 63 62 55 47 43 48 48 46 44 44 37 33 37 49 55 53 60 60 66 60 51 57 59 50 38 40 30 26 29
53 60 64 66 72 78 78 75 65 55 48 61 99 52 67 69 68 65 65 60 60 64 61 56 42 49 50 56 52 47 53 58 62 61 44 42 49 34 29 34 33 31 28
Wind_Direction_500mb
204 209 217 213 243 258 233 216 211 215 237 255 248 247 255 247 238 248 255 272 288 292 302 310 300 292 290 289 287 274 261 259 262 265 262 263 275 276 274 275 266 260 259
207 221 213 206 209 222 217 233 234 236 248 232 232 233 249 249 249 247 248 261 270 278 287 299 302 283 278 280 279 274 261 256 252 258 267 267 277 278 272 275 270 261 257
219 219 226 219 208 212 212 220 220 238 249 250 247 242 243 257 263 262 260 269 282 285 275 277 281 285 269 268 269 269 264 258 252 253 260 267 272 277 272 266 271 265 259
231 221 221 232 235 229 237 238 242 246 253 247 248 233 230 239 252 263 265 267 275 282 284 263 270 280 275 259 257 258 262 256 252 255 256 264 267 269 270 265 265 269 264
236 233 230 233 235 230 230 235 235 239 239 239 231 231 240 240 253 260 262 267 268 273 273 263 251 261 267 256 247 248 250 256 251 249 255 263 268 272 269 268 267 269 268
243 240 244 233 232 234 230 233 236 234 238 234 235 233 242 249 255 256 256 255 258 259 268 263 244 251 260 251 249 238 239 250 257 257 257 260 263 269 275 272 270 270 270
242 243 244 235 219 234 231 233 235 233 235 222 234 241 239 252 261 252 254 257 279 264 256 264 245 256 250 253 247 242 235 234 249 267 261 261 255 263 269 275 270 271 269
240 246 251 234 227 228 230 227 230 228 227 224 224 240 251 256 247 255 246 258 260 259 244 253 245 235 247 287 257 246 254 256 251 253 260 260 258 254 270 268 272 268 271
236 247 249 236 234 229 235 238 219 220 231 231 234 228 222 242 241 248 227 256 263 271 261 255 248 234 244 341 316 275 266 269 280 267 263 263 259 254 267 265 265 268 270
246 244 248 240 239 229 231 231 233 232 231 226 226 225 231 241 248 257 256 265 273 270 268 267 259 257 281 276 298 265 275 266 271 266 272 269 267 261 272 268 259 264 267
253 247 247 251 240 241 229 230 227 227 226 222 215 223 233 247 257 254 263 265 271 273 285 292 274 279 286 274 306 283 280 277 267 262 269 271 271 259 257 272 256 257 263
260 244 251 248 242 233 223 226 223 227 226 228 219 219 236 237 251 262 258 257 270 280 292 280 280 293 280 280 283 278 287 270 269 258 266 269 264 258 252 266 258 255 258
249 256 253 247 233 230 230 236 234 221 229 229 228 236 228 241 249 259 265 269 272 287 287 279 284 292 297 299 299 275 268 263 266 260 265 269 262 259 250 254 247 245 251
253 253 270 259 261 235 245 248 242 224 217 225 234 228 224 222 235 245 245 252 267 273 278 285 290 292 295 289 284 276 265 271 267 267 271 272 271 269 250 247 246 244 246
265 260 263 269 252 256 250 244 243 221 213 219 222 225 232 241 226 241 253 247 253 263 275 283 293 298 281 276 292 277 263 274 272 273 274 277 275 264 260 249 241 243 244
262 259 261 270 273 261 254 231 245 234 220 205 212 218 226 233 239 236 251 257 256 267 264 282 293 299 293 296 284 273 277 272 280 281 273 291 288 269 257 247 244 237 243
273 271 265 268 263 257 240 265 286 276 218 201 203 204 216 228 242 245 241 254 263 272 260 286 287 293 294 291 286 287 290 295 293 286 275 281 288 273 253 253 241 235 241
262 277 279 273 266 270 268 263 276 277 231 203 205 205 224 235 246 239 232 252 263 282 296 294 296 294 292 297 290 295 296 289 292 294 283 281 291 273 261 252 239 247 240
256 265 263 276 257 257 241 207 188 214 215 205 189 195 223 231 225 224 232 249 258 255 264 276 281 280 287 298 316 310 297 291 294 297 291 281 288 279 259 249 255 245 238
281 249 271 283 242 241 208 203 193 205 227 240 235 227 221 219 233 235 231 237 248 258 265 273 284 294 303 303 307 314 309 298 297 294 295 284 290 284 260 258 253 241 241
289 272 282 307 275 241 234 227 218 209 208 206 209 211 210 211 212 232 225 238 244 251 264 270 272 279 286 291 291 295 300 302 293 297 294 295 292 288 273 253 253 247 238
267 263 263 293 270 280 234 222 217 223 204 207 207 207 204 205 214 220 227 227 243 260 271 279 287 294 301 301 302 301 293 294 296 288 292 291 297 292 270 257 248 245 240
268 258 262 254 284 251 255 253 222 226 218 214 211 209 210 211 223 229 237 245 243 256 274 286 294 301 308 315 313 304 301 297 290 285 280 283 281 282 269 269 248 231 241
280 265 255 263 270 270 273 262 239 230 222 222 223 222 221 215 225 233 241 249 257 267 274 283 289 300 305 310 312 301 294 292 283 279 283 280 273 277 259 249 248 244 239
270 274 267 253 257 253 259 264 260 259 248 222 229 222 226 230 223 233 237 243 256 265 262 267 289 295 287 299 308 296 294 293 291 290 289 283 269 261 255 251 239 243 249
269 265 265 273 264 257 258 246 249 256 258 247 235 225 227 231 241 239 235 239 245 262 266 271 266 272 286 299 310 306 304 291 291 296 298 280 263 246 237 234 233 236 248
Wind_Speed_850mb
43 45 35 28 28 17 17 15 21 30 28 16 13 13 16 22 30 31 26 31 29 32 30 32 28 28 26 24 20 20 22 23 23 25 23 20 19 21 23 24 24 26 26
51 47 45 41 38 28 23 27 23 27 26 17 19 31 33 27 27 26 32 32 37 37 31 30 31 29 29 26 24 20 22 24 28 24 25 24 22 24 23 25 24 26 28
59 59 54 58 59 53 50 42 39 43 39 36 35 31 33 32 26 28 32 35 37 37 34 30 36 34 30 28 27 23 20 23 28 28 24 24 22 24 25 26 24 25 28
61 67 65 61 57 52 47 45 45 43 42 40 32 27 28 32 35 32 33 35 33 38 37 37 36 36 31 30 28 26 21 23 23 26 25 25 24 25 26 28 28 26 26
71 73 75 71 59 58 63 57 53 48 42 38 38 41 46 42 39 35 31 28 30 41 47 47 43 42 41 35 30 28 24 24 27 26 27 25 25 26 28 31 33 32 30
78 72 74 71 61 64 67 64 50 51 51 45 46 46 47 43 34 37 39 33 34 39 47 47 52 50 45 29 29 29 25 23 28 29 31 29 28 26 29 35 36 37 37
81 82 73 85 72 69 76 72 53 57 55 45 41 39 36 44 50 46 37 31 32 36 43 36 44 47 39 40 33 28 26 24 23 30 39 32 33 29 29 34 38 38 39
81 86 79 88 71 79 79 77 58 67 63 54 56 50 50 42 45 42 31 25 23 26 33 27 34 26 32 39 35 24 23 26 17 30 38 42 39 34 32 33 38 39 41
80 88 82 84 87 80 86 83 78 64 70 60 53 47 23 40 41 32 41 38 40 41 39 43 50 54 55 35 52 36 25 29 27 33 32 37 42 38 38 38 38 39 40
74 81 87 88 100 93 81 77 72 76 79 61 45 53 57 48 32 30 44 49 54 63 61 59 72 70 67 88 99 36 38 44 45 33 33 36 40 39 41 48 40 41 40
81 82 86 91 96 91 85 85 78 75 72 60 54 48 48 53 54 56 40 52 56 50 51 55 78 61 75 76 60 32 43 57 44 52 53 48 45 50 53 51 42 43 41
71 95 95 95 94 90 92 81 84 82 79 68 70 65 48 58 58 49 45 51 57 59 50 40 55 50 65 53 67 66 74 50 57 58 59 59 58 54 54 48 49 46 44
68 80 100 105 107 83 81 91 87 84 85 75 66 56 45 49 43 36 36 40 40 52 44 45 55 51 44 39 43 52 53 60 61 58 65 69 64 62 64 60 53 46 47
96 88 86 84 74 75 74 90 98 96 91 72 62 47 56 53 43 49 50 37 37 42 43 54 47 49 48 53 50 57 64 68 69 58 60 70 77 67 62 60 55 46 46
73 90 96 84 80 90 113 129 120 98 82 68 56 45 42 42 47 39 47 43 43 40 49 53 51 45 41 47 44 46 52 52 49 51 55 63 70 72 66 62 55 50 47
76 84 85 80 79 82 87 101 94 66 62 50 49 45 40 37 38 40 45 47 49 54 55 52 46 43 44 38 42 49 52 53 54 57 54 50 56 60 64 57 59 52 48
62 75 84 80 78 60 75 82 77 81 50 54 41 37 32 34 37 43 40 39 48 57 47 48 45 36 40 39 49 54 55 57 57 56 57 48 44 47 47 56 56 51 50
51 59 64 66 65 67 79 91 64 61 30 32 32 30 34 26 34 38 48 47 43 47 37 42 45 41 40 37 41 43 48 55 50 53 50 49 37 41 46 47 48 49 53
58 46 44 49 52 51 19 24 58 64 46 43 32 32 35 40 36 23 25 29 25 28 32 38 44 47 51 42 40 41 46 53 54 56 52 55 43 37 47 52 54 55 53
61 65 51 60 45 39 39 46 54 49 43 39 37 46 36 40 42 39 36 34 39 40 37 36 37 38 39 41 42 28 33 39 45 43 46 43 49 43 44 54 54 56 56
56 66 38 44 43 47 46 40 40 40 47 44 43 40 41 32 31 31 25 25 25 26 29 32 35 41 42 41 47 54 55 41 42 43 44 50 53 52 44 47 52 58 58
57 66 53 25 49 34 19 35 37 32 35 37 40 42 36 36 41 29 30 33 28 29 31 34 34 36 39 42 47 49 54 60 64 55 49 46 43 49 44 45 45 47 48
67 74 81 69 43 60 51 41 43 48 45 46 51 47 48 37 37 37 39 35 33 32 30 26 33 35 40 46 46 45 50 52 52 46 53 62 50 50 43 38 31 23 21
64 68 80 64 57 56 52 44 37 34 44 53 52 55 51 50 45 41 40 39 39 37 34 32 35 39 38 44 48 52 58 66 70 65 59 73 62 56 44 41 38 30 26
65 70 69 88 76 72 68 57 45 33 51 65 53 67 63 62 55 47 43 48 48 46 44 44 37 33 37 49 55 53 60 60 66 60 51 57 59 50 38 40 30 26 29
53 60 64 66 72 78 78 75 65 55 48 61 99 52 67 69 68 65 65 60 60 64 61 56 42 49 50 56 52 47 53 58 62 61 44 42 49 34 29 34 33 31 28
Wind_Direction_850mb
204 209 217 213 243 258 233 216 211 215 237 255 248 247 255 247 238 248 255 272 288 292 302 310 300 292 290 289 287 274 261 259 262 265 262 263 275 276 274 275 266 260 259
207 221 213 206 209 222 217 233 234 236 248 232 232 233 249 249 249 247 248 261 270 278 287 299 302 283 278 280 279 274 261 256 252 258 267 267 277 278 272 275 270 261 257
219 219 226 219 208 212 212 220 220 238 249 250 247 242 243 257 263 262 260 269 282 285 275 277 281 285 269 268 269 269 264 258 252 253 260 267 272 277 272 266 271 265 259
231 221 221 232 235 229 237 238 242 246 253 247 248 233 230 239 252 263 265 267 275 282 284 263 270 280 275 259 257 258 262 256 252 255 256 264 267 269 270 265 265 269 264
236 233 230 233 235 230 230 235 235 239 239 239 231 231 240 240 253 260 262 267 268 273 273 263 251 261 267 256 247 248 250 256 251 249 255 263 268 272 269 268 267 269 268
243 240 244 233 232 234 230 233 236 234 238 234 235 233 242 249 255 256 256 255 258 259 268 263 244 251 260 251 249 238 239 250 257 257 257 260 263 269 275 272 270 270 270
242 243 244 235 219 234 231 233 235 233 235 222 234 241 239 252 261 252 254 257 279 264 256 264 245 256 250 253 247 242 235 234 249 267 261 261 255 263 269 275 270 271 269
240 246 251 234 227 228 230 227 230 228 227 224 224 240 251 256 247 255 246 258 260 259 244 253 245 235 247 287 257 246 254 256 251 253 260 260 258 254 270 268 272 268 271
236 247 249 236 234 229 235 238 219 220 231 231 234 228 222 242 241 248 227 256 263 271 261 255 248 234 244 341 316 275 266 269 280 267 263 263 259 254 267 265 265 268 270
246 244 248 240 239 229 231 231 233 232 231 226 226 225 231 241 248 257 256 265 273 270 268 267 259 257 281 276 298 265 275 266 271 266 272 269 267 261 272 268 259 264 267
253 247 247 251 240 241 229 230 227 227 226 222 215 223 233 247 257 254 263 265 271 273 285 292 274 279 286 274 306 283 280 277 267 262 269 271 271 259 257 272 256 257 263
260 244 251 248 242 233 223 226 223 227 226 228 219 219 236 237 251 262 258 257 270 280 292 280 280 293 280 280 283 278 287 270 269 258 266 269 264 258 252 266 258 255 258
249 256 253 247 233 230 230 236 234 221 229 229 228 236 228 241 249 259 265 269 272 287 287 279 284 292 297 299 299 275 268 263 266 260 265 269 262 259 250 254 247 245 251
253 253 270 259 261 235 245 248 242 224 217 225 234 228 224 222 235 245 245 252 267 273 278 285 290 292 295 289 284 276 265 271 267 267 271 272 271 269 250 247 246 244 246
265 260 263 269 252 256 250 244 243 221 213 219 222 225 232 241 226 241 253 247 253 263 275 283 293 298 281 276 292 277 263 274 272 273 274 277 275 264 260 249 241 243 244
262 259 261 270 273 261 254 231 245 234 220 205 212 218 226 233 239 236 251 257 256 267 264 282 293 299 293 296 284 273 277 272 280 281 273 291 288 269 257 247 244 237 243
273 271 265 268 263 257 240 265 286 276 218 201 203 204 216 228 242 245 241 254 263 272 260 286 287 293 294 291 286 287 290 295 293 286 275 281 288 273 253 253 241 235 241
262 277 279 273 266 270 268 263 276 277 231 203 205 205 224 235 246 239 232 252 263 282 296 294 296 294 292 297 290 295 296 289 292 294 283 281 291 273 261 252 239 247 240
256 265 263 276 257 257 241 207 188 214 215 205 189 195 223 231 225 224 232 249 258 255 264 276 281 280 287 298 316 310 297 291 294 297 291 281 288 279 259 249 255 245 238
281 249 271 283 242 241 208 203 193 205 227 240 235 227 221 219 233 235 231 237 248 258 265 273 284 294 303 303 307 314 309 298 297 294 295 284 290 284 260 258 253 241 241
289 272 282 307 275 241 234 227 218 209 208 206 209 211 210 211 212 232 225 238 244 251 264 270 272 279 286 291 291 295 300 302 293 297 294 295 292 288 273 253 253 247 238
267 263 263 293 270 280 234 222 217 223 204 207 207 207 204 205 214 220 227 227 243 260 271 279 287 294 301 301 302 301 293 294 296 288 292 291 297 292 270 257 248 245 240
268 258 262 254 284 251 255 253 222 226 218 214 211 209 210 211 223 229 237 245 243 256 274 286 294 301 308 315 313 304 301 297 290 285 280 283 281 282 269 269 248 231 241
280 265 255 263 270 270 273 262 239 230 222 222 223 222 221 215 225 233 241 249 257 267 274 283 289 300 305 310 312 301 294 292 283 279 283 280 273 277 259 249 248 244 239
270 274 267 253 257 253 259 264 260 259 248 222 229 222 226 230 223 233 237 243 256 265 262 267 289 295 287 299 308 296 294 293 291 290 289 283 269 261 255 251 239 243 249
269 265 265 273 264 257 258 246 249 256 258 247 235 225 227 231 241 239 235 239 245 262 266 271 266 272 286 299 310 306 304 291 291 296 298 280 263 246 237 234 233 236 248